EW3804 Weather Reports


Display with metric or nautical units.
time (UTC)temp
F
wind
direction
speed
MPH
gust
MPH
rain 1hr
in
rain 24hr
in
rain mn
in
humidity
%
barometer
mb
20260906090040 77 146 1.0 2.0 0.00 0.00 0.00 83 1004.1
20260906084539 77 151 1.0 3.0 0.00 0.00 0.00 83 1004.0
20260906083038 77 155 0.0 2.0 0.00 0.00 0.00 82 1004.0
20260906081549 78 131 0.0 2.0 0.00 0.00 0.00 82 1004.1
20260906080034 78 131 0.0 3.0 0.00 0.00 0.00 81 1004.3
20260906074532 79 138 0.0 2.0 0.00 0.00 0.00 80 1004.4
20260906073045 79 129 0.0 3.0 0.00 0.00 0.00 79 1004.6
20260906071528 79 132 1.0 3.0 0.00 0.00 0.00 79 1004.7
20260906070036 79 153 0.0 0.0 0.00 0.00 0.00 78 1004.7
20260906064523 80 134 1.0 3.0 0.00 0.00 0.00 77 1004.9
20260906063022 80 150 1.0 4.0 0.00 0.00 0.00 77 1005.1
20260906061520 80 146 0.0 3.0 0.00 0.00 0.00 76 1005.0
20260906060019 81 153 1.0 4.0 0.00 0.00 0.00 75 1005.1
20260906054521 81 150 2.0 6.0 0.00 0.00 0.00 75 1004.9
20260906053016 81 145 1.0 5.0 0.00 0.00 0.00 75 1005.1
20260906051520 82 146 3.0 7.0 0.00 0.00 0.00 74 1005.0
20260906050014 82 153 4.0 7.0 0.00 0.00 0.00 74 1005.1
20260906044509 82 148 3.0 5.0 0.00 0.00 0.00 73 1005.2
20260906043004 82 123 3.0 6.0 0.00 0.00 0.00 73 1005.0
20260906041600 83 150 3.0 7.0 0.00 0.00 0.00 73 1004.9
20260906040111 83 160 4.0 10.0 0.00 0.00 0.00 72 1005.0
20260906034550 83 153 6.0 11.0 0.00 0.00 0.00 70 1005.0
20260906033049 84 127 7.0 11.0 0.00 0.00 0.00 69 1004.9
20260906031540 85 143 6.0 13.0 0.00 0.00 0.00 68 1004.9
20260906030037 85 124 3.0 10.0 0.00 0.00 0.00 67 1004.8
20260906024533 86 106 3.0 8.0 0.00 0.00 0.00 65 1004.6
20260906023027 87 153 4.0 9.0 0.00 0.00 0.00 64 1004.1
20260906021523 87 119 6.0 12.0 0.00 0.00 0.00 62 1003.9
20260906020019 88 110 6.0 12.0 0.00 0.00 0.00 59 1003.9
20260906014522 89 103 6.0 12.0 0.00 0.00 0.00 57 1003.7
20260906013010 90 108 10.0 16.0 0.00 0.00 0.00 56 1003.6
20260906011505 90 94 7.0 14.0 0.00 0.00 0.00 53 1003.4
20260906010101 91 107 7.0 12.0 0.00 0.00 0.00 53 1003.1
20260906004608 91 125 5.0 14.0 0.00 0.00 0.00 54 1003.0
20260906003054 92 118 8.0 14.0 0.00 0.00 0.00 54 1003.1
20260906001547 93 123 7.0 16.0 0.00 0.00 0.00 52 1003.2
20260906000043 93 106 8.0 17.0 0.00 0.00 0.00 51 1003.0
20260905234550 94 99 8.0 17.0 0.00 0.00 0.00 52 1002.9
20260905233034 96 110 10.0 15.0 0.00 0.00 0.00 48 1002.7
20260905231529 97 91 6.0 10.0 0.00 0.00 0.00 41 1002.6
20260905230024 98 23 7.0 11.0 0.00 0.00 0.00 42 1002.6
20260905224520 98 136 3.0 9.0 0.00 0.00 0.00 40 1002.6
20260905223015 99 157 5.0 8.0 0.00 0.00 0.00 41 1002.5
20260905221514 99 147 3.0 9.0 0.00 0.00 0.00 41 1002.5
20260905220007 98 110 0.0 6.0 0.00 0.00 0.00 41 1002.4
20260905214501 98 145 3.0 7.0 0.00 0.00 0.00 40 1002.6
20260905213057 97 140 2.0 9.0 0.00 0.00 0.00 42 1002.7
20260905211553 98 104 3.0 10.0 0.00 0.00 0.00 41 1003.0
20260905210049 98 123 6.0 10.0 0.00 0.00 0.00 41 1003.2
20260905204545 100 101 2.0 7.0 0.00 0.00 0.00 40 1003.5
20260905203039 99 259 3.0 7.0 0.00 0.00 0.00 40 1003.6
20260905201537 96 100 0.0 6.0 0.00 0.00 0.00 43 1003.7
20260905200039 94 125 1.0 7.0 0.00 0.00 0.00 47 1003.9
20260905194526 96 118 5.0 11.0 0.00 0.00 0.00 45 1004.2
20260905193023 97 120 3.0 8.0 0.00 0.00 0.00 45 1004.4
20260905191515 96 112 5.0 9.0 0.00 0.00 0.00 46 1004.8
20260905190035 95 141 0.0 13.0 0.00 0.00 0.00 48 1004.9
20260905184507 94 127 0.0 7.0 0.00 0.00 0.00 49 1005.3
20260905183002 96 133 6.0 12.0 0.00 0.00 0.00 47 1005.5
20260905181603 95 181 2.0 8.0 0.00 0.00 0.00 47 1005.7
20260905180054 94 273 1.0 8.0 0.00 0.00 0.00 50 1006.0
20260905174548 94 306 2.0 11.0 0.00 0.00 0.00 50 1006.3
20260905173045 93 141 4.0 12.0 0.00 0.00 0.00 52 1006.5
20260905171541 92 159 3.0 10.0 0.00 0.00 0.00 54 1006.6
20260905170041 92 234 3.0 9.0 0.00 0.00 0.00 55 1006.7
20260905164536 91 111 2.0 9.0 0.00 0.00 0.00 56 1006.8
20260905163027 91 265 2.0 10.0 0.00 0.00 0.00 56 1006.9
20260905161523 91 150 3.0 8.0 0.00 0.00 0.00 58 1006.8
20260905160018 90 92 5.0 10.0 0.00 0.00 0.00 60 1006.9
20260905154513 89 197 5.0 9.0 0.00 0.00 0.00 63 1006.9
20260905153012 88 268 5.0 9.0 0.00 0.00 0.00 65 1007.0
20260905151504 87 194 5.0 11.0 0.00 0.00 0.00 69 1006.9
20260905150100 86 200 2.0 10.0 0.00 0.00 0.00 73 1007.0
20260905144555 85 169 3.0 8.0 0.00 0.00 0.00 76 1006.8
20260905143051 84 184 3.0 8.0 0.00 0.00 0.00 79 1006.8
20260905141553 82 152 1.0 7.0 0.00 0.00 0.00 82 1006.9
20260905140042 80 118 1.0 4.0 0.00 0.00 0.00 85 1006.9
20260905134537 79 107 0.0 1.0 0.00 0.02 0.00 86 1006.7
20260905133034 78 114 0.0 2.0 0.00 0.02 0.00 86 1006.7
20260905131536 77 108 0.0 2.0 0.00 0.02 0.00 88 1006.7
20260905130035 77 149 0.0 0.0 0.00 0.02 0.00 89 1006.6
20260905124519 0 0.0 0.0 0.00 0.02 0.00 1006.3
20260905123015 0 0.0 0.0 0.00 0.02 0.00 1006.0
20260905121510 0 0.0 0.0 0.00 0.02 0.00 1005.9
20260905120006 0 0.0 0.0 0.00 0.02 0.00 1005.8
20260905114501 0 0.0 0.0 0.00 0.02 0.00 1005.7
20260905113057 0 0.0 0.0 0.00 0.02 0.00 1005.6
20260905111608 0 0.0 0.0 0.00 0.02 0.00 1005.6
20260905110055 0 0.0 0.0 0.00 0.02 0.00 1005.7
20260905104544 0 0.0 0.0 0.00 0.02 0.00 1005.6
20260905103042 0 0.0 0.0 0.00 0.02 0.00 1005.5
20260905101544 0 0.0 0.0 0.00 0.02 0.00 1005.5
20260905100035 0 0.0 0.0 0.00 0.02 0.00 1005.5
20260905094530 0 0.0 0.0 0.00 0.02 0.00 1005.5
20260905093026 77 123 1.0 3.0 0.00 0.02 0.00 87 1005.3
20260905091525 77 146 0.0 1.0 0.00 0.02 0.00 86 1005.5